Flag for American Samoa Weather past 2 weeks in Pago Pago, American Samoa

Now
78 °F

Passing clouds.


Feels Like: 81 °F
Forecast: 77 / 82 °F
Wind: 12 mph from Southeast

Location: Pago Pago / Int. Airp.

Current Time: Sep 2, 2014 at 7:16:41 AM

Latest Report: Sep 2, 2014 at 4:53 AM


Visibility: 10 mi

Pressure: 29.88 "Hg

Humidity: 79%

Dew point: 71 °F

Location of Pago PagoLocation

Historic Weather in Pago Pago — Graph

°F

Pago Pago temperature yesterday

Maximum temperature yesterday: 86 °F (at 10:55 AM)
Minimum temperature yesterday: 78 °F (at 4:58 AM)
Average temperature yesterday: 81 °F

Past Weeks' High & Low Weather Summary

 TemperatureHumidityPressure
High86 °F (Aug 21, 10:54 AM)94% (Aug 19, 6:55 PM)30.01 "Hg (Aug 19, 6:55 PM)
Low73 °F (Aug 19, 6:55 PM)66% (Aug 29, 11:51 AM)29.85 "Hg (Aug 28, 3:51 PM)
Average79 °F79%29.92 "Hg
* Reported Aug 18 4:56 AM — Sep 2 4:53 AM, Pago Pago, Weather by CustomWeather, © 2014

Note: Actual official high and low records may vary slightly from our data, if they occured in-between our weather recording intervals... More about our weather records

Advertising

Pago Pago weather history for previous 24 hours

 ConditionsComfort  
Time TempWeatherWind HumidityBarometerVisibility
4:53 AM
Sep 2
78 °FPassing clouds.12 mph79%29.88 "Hg10 mi
3:53 AM78 °FPassing clouds.12 mph79%29.87 "Hg10 mi
2:52 AM78 °FPassing clouds.13 mph79%29.87 "Hg10 mi
1:54 AM78 °FPassing clouds.14 mph79%29.89 "Hg10 mi
12:50 AM79 °FPassing clouds.14 mph79%29.91 "Hg10 mi
11:50 PM
Sep 1
79 °FPassing clouds.17 mph80%29.92 "Hg10 mi
10:51 PM79 °FPartly cloudy.17 mph79%29.93 "Hg10 mi
9:53 PM79 °FPartly cloudy.16 mph79%29.93 "Hg10 mi
8:51 PM79 °FPartly cloudy.15 mph79%29.93 "Hg10 mi
7:52 PM79 °FPartly cloudy.14 mph79%29.91 "Hg10 mi
6:50 PM80 °FPassing clouds.14 mph79%29.88 "Hg10 mi
5:50 PM81 °FScattered clouds.15 mph79%29.87 "Hg12 mi
4:55 PM82 °FBroken clouds.15 mph79%29.86 "Hg12 mi
3:53 PM84 °FBroken clouds.16 mph74%29.85 "Hg12 mi
2:54 PM85 °FBroken clouds.15 mph72%29.85 "Hg12 mi
1:50 PM85 °FBroken clouds.17 mph70%29.87 "Hg12 mi
12:50 PM86 °FBroken clouds.20 mph70%29.90 "Hg12 mi
11:55 AM84 °FBroken clouds.17 mph72%29.91 "Hg12 mi
10:55 AM86 °FBroken clouds.15 mph70%29.94 "Hg12 mi
9:50 AM84 °FBroken clouds.16 mph72%29.95 "Hg12 mi
8:50 AM82 °FBroken clouds.17 mph75%29.96 "Hg12 mi
7:54 AM81 °FScattered clouds.20 mph79%29.95 "Hg12 mi
Weather by CustomWeather, © 2014

See weather overviewHow to use our weather pages